Regional Weather Roundup
Issued by NWS State College, PA

Home | Current Version | Previous Version | Text Only | Print | Product List | Glossary On
Versions: 1 2 3 4 5 6 7 8 9 10 11 12 13 14 15 16 17 18 19 20 21 22 23 24 25 26 27 28 29 30 31 32 33 34 35 36 37 38 39 40 41 42 43 44 45 46 47 48 49 50
000
ASUS41 KCTP 302010
RWRCTP

REGIONAL WEATHER ROUNDUP
NATIONAL WEATHER SERVICE STATE COLLEGE PA
400 PM EDT FRI SEP 30 2016

Note: "fair" indicates few or no clouds below 12,000 feet with no
significant weather and/or obstructions to visibility.

* = STATION THAT DOES NOT REPORT PRECIPITATION /E.G. RAIN...SNOW...ETC/
    THUNDER OR FOG.

PAZ002>004-007>009-013>016-020>023-029>032-302100-
WESTERN PENNSYLVANIA

CITY           SKY/WX    TMP DP  RH WIND       PRES   REMARKS
ERIE           CLOUDY    67  58  72 E14G24    30.13F
MEADVILLE      CLOUDY    61  54  77 E10G24    30.14S
FRANKLIN*        N/A     59  52  77 E9G18     30.16S
NEW CASTLE     CLOUDY    61  56  83 VRB7      30.13
BEAVER COUNTY  CLOUDY    61  55  82 E5        30.09S
BUTLER*        CLOUDY    59  54  82 E15       30.14F
PITTSBURGH INT LGT RAIN  60  58  92 SE6       30.11R
PITTSBURGH     CLOUDY    63  54  72 E14       30.09F
INDIANA*       CLOUDY    59  54  82 E15       30.17F
LATROBE        CLOUDY    61  55  82 E8        30.12F
WASHINGTON CO* CLOUDY    61  57  88 E10       30.09F
$$

PAZ004>006-010>012-017>019-024>028-033>037-041-042-045-046-049>053-302100-
CENTRAL PENNSYLVANIA

CITY           SKY/WX    TMP DP  RH WIND       PRES   REMARKS
BRADFORD       CLOUDY    57  56  96 SE12      30.21F
DUBOIS         CLOUDY    57  52  83 E13G20    30.17F
CLEARFIELD     CLOUDY    56  55  97 E10       30.20F
JOHNSTOWN      CLOUDY    54  53  97 E10       30.14F FOG
ALTOONA        LGT RAIN  54  54 100 E9        30.19F FOG
STATE COLLEGE  CLOUDY    55  52  88 E8        30.20F FOG
WILLIAMSPORT   CLOUDY    59  56  89 E8        30.23F
SELINSGROVE    LGT RAIN  58  58 100 N5        30.22F FOG
FT INDIANTOWN  CLOUDY    57  55  91 NE10      30.20F
CAPITAL CITY   CLOUDY    59  55  87 NE7       30.20F FOG
HARRISBURG     CLOUDY    58  57  97 E5        30.19F FOG
YORK           CLOUDY    58  58 100 E6        30.18F
$$

PAZ038>040-043-044-047-048-054-055-060>062-067>071-302100-
EASTERN PENNSYLVANIA

CITY           SKY/WX    TMP DP  RH WIND       PRES   REMARKS
SCRANTON       CLOUDY    57  52  83 E13G24    30.24F
MOUNT POCONO   LGT RAIN N/A N/A N/A E15G28    30.26S
ALLENTOWN      CLOUDY    58  54  86 NE10      30.23F
QUAKERTOWN*    CLOUDY    59  55  88 NE8       30.23F
READING        CLOUDY    58  55  90 NE8       30.20F
LANCASTER      CLOUDY    60  58  92 E14       30.18F
COATESVILLE    CLOUDY    59  57  94 NE7G20    30.19F FOG
POTTSTOWN      LGT RAIN  58  57  97 NE7       30.22F FOG
BLUE BELL      CLOUDY    59  57  94 NE9       30.20F
DOYLESTOWN     CLOUDY    61  58  90 VRB6      30.21S
WILLOW GROVE   NOT AVBL
NORTH PHILA    CLOUDY    64  59  83 E17       30.21F
PHILADELPHIA   CLOUDY    63  59  87 NE16G28   30.18F
$$



USA.gov is the U.S. government's official web portal to all federal, state and local government web resources and services.